Location: ????
(55.8514°N, 38.0225°E)
Time: 06:09:19
(UTC+00:00)

Daily predictions for brighter satellites

Satellite Brightness Start Highest point End
(mag) Time Altitude Azimuth Time Altitude Azimuth Time Altitude Azimuth
NOSS 3-3 (A) 4.0 14:01:17 10° WSW 14:06:50 81° NW 14:13:38 10° NE
GEOS 3 Rocket 4.4 14:02:03 10° NE 14:07:07 46° NNW 14:12:12 10° W
Cosmos 2297 Rocket 3.9 14:03:21 10° WNW 14:07:33 21° NNW 14:11:45 10° NNE
Cosmos 1459 Rocket 4.1 14:01:32 10° S 14:07:47 68° E 14:14:06 10° NNE
Cosmos 1025 Rocket 3.1 14:04:05 10° NNW 14:08:27 86° W 14:12:45 10° S
Cosmos 2100 Rocket 4.0 14:02:55 10° S 14:09:04 74° E 14:15:13 10° NNE
Thor Agena Rocket 3.6 14:04:41 10° SSE 14:09:56 77° ENE 14:15:14 10° NNW
DNEPR-1 R/B 4.3 14:07:53 10° NW 14:12:11 60° SW 14:17:00 10° SSE
SWARM A 4.4 14:08:57 10° N 14:12:13 50° E 14:15:28 10° SSE
CZ-2D R/B 3.3 14:10:38 10° SE 14:13:32 34° ENE 14:16:27 10° N
Geosat FO 4.4 14:11:21 10° ESE 14:14:06 43° NE 14:16:53 10° NNW
Cosmos 1674 Rocket 4.3 14:10:22 10° NNW 14:14:41 59° W 14:18:56 10° S
RESURS DK-1 2.7 14:13:56 10° NNW 14:17:45 40° NE 14:21:34 10° ESE
SAR-Lupe-1 4.3 14:15:50 10° SE 14:19:16 47° ENE 14:22:45 10° N
Meteor 1-28 Rocket 3.1 14:16:20 10° NNE 14:19:40 52° E 14:22:58 10° S
Cosmos 1606 1.8 14:17:43 10° SSW 14:20:23 83° WNW 14:23:05 10° N
IGS 5A 3.3 14:16:28 10° SSE 14:20:28 87° ENE 14:24:30 10° NNW
Cosmos 1864 Rocket 4.5 14:15:53 10° S 14:21:57 65° E 14:28:08 10° NNE
IRS-P3 4.3 14:18:31 10° SE 14:23:39 50° ENE 14:28:48 10° N
ATLAS 2AS CENTAUR R/B 3.2 14:17:32 10° WNW 14:24:06 44° N 14:30:12 12° ENE
Cosmos 2221 Rocket 4.1 14:22:31 10° NNW 14:27:00 66° W 14:31:25 10° S
Cosmos 2061 Rocket 4.3 14:24:02 10° SSE 14:29:58 46° E 14:35:53 10° NNE
SAR-Lupe-4 3.5 14:28:13 10° SSE 14:31:47 72° ENE 14:35:22 10° NNW
NOSS 3-3 (C) 4.1 14:28:10 10° WSW 14:33:46 71° NNW 14:40:16 12° NE
YAOGAN 1 3.5 14:30:31 10° ESE 14:34:02 25° ENE 14:37:34 10° N
PSLV R/B 4.4 14:32:50 10° ESE 14:36:09 25° ENE 14:39:27 10° N
Cosmos 1725 Rocket 4.0 14:30:08 10° S 14:36:23 74° E 14:42:43 10° NNE
Cosmos 2344 3.8 14:30:02 10° WNW 14:37:15 57° NNE 14:46:00 10° E
Cosmos 2233 Rocket 4.1 14:32:01 10° S 14:38:09 57° E 14:44:20 10° NNE
SJ-12 3.6 14:35:53 10° SSE 14:39:39 69° ENE 14:43:27 10° N
ARIANE 5 R/B 2.4 14:35:05 10° SSE 14:40:03 82° ENE 14:45:06 10° NNW
Resurs 1-3 4.5 14:36:57 10° ESE 14:40:35 27° ENE 14:44:14 10° N
ARIANE 6 FM1 Upper Stage 2.9 14:39:06 10° WSW 14:43:03 60° NNW 14:46:07 16° NE
CZ-2D R/B 4.0 14:39:38 10° SE 14:43:28 37° ENE 14:47:21 10° N
Cosmos 468 Rocket 4.3 14:38:50 10° NNW 14:43:52 44° NE 14:48:49 10° ESE
Cosmos 1340 Rocket 3.6 14:40:17 10° SSW 14:44:03 51° WNW 14:47:49 10° N
Aureole 3 Rocket 4.4 14:43:14 10° ESE 14:43:37 12° ESE 14:43:37 12° ESE
Cosmos 2173 Rocket 4.3 14:40:52 10° SSW 14:47:02 69° WNW 14:53:11 10° N
Cosmos 2058 3.6 14:43:40 10° N 14:47:11 29° ENE 14:50:41 10° SE
Cosmos 1536 Rocket 4.5 14:43:52 10° N 14:47:39 27° ENE 14:51:24 10° ESE
IRAS Rocket 4.5 14:43:19 10° SE 14:48:37 47° ENE 14:53:53 10° NNW
Resurs 01 Rocket 3.0 14:49:03 18° ENE 14:50:01 19° NE 14:53:08 10° N
SMAP 3.4 14:47:59 10° S 14:52:38 71° WSW 14:57:19 10° NNW
Cosmos 1441 Rocket 4.5 14:51:58 10° NNW 14:55:07 38° W 14:58:14 10° SSW
Cosmos 2227 Rocket 4.0 14:51:39 10° WNW 14:55:47 20° NNW 14:59:55 10° NNE
Cosmos 2082 Rocket 2.3 14:50:55 10° NNW 14:56:29 56° NE 15:02:00 10° SE
SL-08 R/B 4.4 14:51:21 10° S 14:57:27 83° E 15:03:34 10° NNE
Cosmos 1802 Rocket 4.3 14:52:21 10° SSW 14:58:48 78° WNW 15:05:16 10° N
SPOT 1/Viking Rocket 3.5 14:59:35 10° SSE 15:04:40 61° ENE 15:09:48 10° N
Cosmos 2278 Rocket 3.1 15:00:17 10° SSE 15:05:01 28° ESE 15:07:18 21° ENE
Timation 1 Rocket 4.3 14:59:05 10° NW 15:05:06 88° NE 15:11:05 10° SE
Landsat 7 4.0 15:01:05 10° S 15:05:44 74° WSW 15:10:25 10° NNW
Cosmos 1943 Rocket 3.0 15:01:30 10° SSE 15:06:17 29° ESE 15:08:37 22° ENE
AQUARIUS 4.2 15:02:17 10° SSE 15:06:43 83° WSW 15:11:10 10° NNW
Cosmos 407 Rocket 4.0 15:04:10 10° S 15:08:51 36° ESE 15:11:36 21° NE
Cosmos 1782 Rocket 3.5 15:05:11 10° S 15:09:37 88° ESE 15:14:06 10° NNE
Cosmos 1869 3.4 15:06:20 10° SSE 15:09:39 40° E 15:11:07 26° NE
Tsikada Rocket 4.5 15:05:09 10° NNW 15:11:31 66° W 15:17:49 10° S
Cosmos 2084 Rocket 3.6 15:08:55 10° SSW 15:13:01 54° SE 15:14:52 29° ENE
ATLAS 5 CENTAUR R/B 3.4 15:10:59 10° WNW 15:14:49 33° SW 15:19:25 10° SSE
CARTOSAT-1 4.2 15:14:03 28° E 15:14:55 31° ENE 15:18:38 10° N
SJ-7 4.2 15:11:49 10° SE 15:15:24 52° ENE 15:19:01 10° N
SL-16 R/B 3.1 15:10:52 10° NNE 15:17:02 59° WNW 15:23:09 10° SW
Cosmos 1300 Rocket 3.7 15:13:02 10° SSW 15:17:25 74° WNW 15:21:49 10° N
Cosmos 2016 Rocket 4.4 15:14:46 10° SSW 15:21:03 66° WNW 15:27:25 10° N
COSMOS 2406 3.4 15:17:26 10° NNW 15:23:00 53° NE 15:26:28 23° ESE
Cosmos 1975 Rocket 3.7 15:19:43 10° NNW 15:23:58 56° W 15:28:14 10° S
Spot 4 Rocket 3.9 15:19:29 10° SSE 15:24:34 75° ENE 15:29:41 10° NNW
Cosmos 2026 Rocket 4.4 15:19:07 10° N 15:24:43 36° ENE 15:28:19 20° ESE
USA 281 3.5 15:22:21 19° ESE 15:26:49 48° NE 15:33:06 10° NNW
Cosmos 2263 Rocket 4.1 15:23:39 10° WNW 15:27:42 20° NNW 15:31:27 11° NNE
ATLAS CENTAUR R/B 1.7 15:24:24 10° WSW 15:27:46 45° NNW 15:29:04 29° NNE
MOS 1 Rocket 3.3 15:24:27 10° S 15:28:45 73° WSW 15:33:17 10° NNW
Cosmos 2151 Rocket 4.3 15:24:52 10° SSE 15:28:25 33° ESE 15:28:25 33° ESE
UNK 4.3 15:25:42 10° N 15:30:15 60° WNW 15:34:47 10° SSW
Cosmos 1844 Rocket 4.0 15:25:17 10° WSW 15:30:22 34° NW 15:35:10 11° NNE
COSMO-SKYMED 1 2.9 15:34:14 39° ESE 15:34:14 39° ESE 15:37:50 10° SSE
SKYMED 2 3.6 15:31:12 20° NNE 15:34:01 54° E 15:38:17 10° S
CZ-4C R/B 2.6 15:30:49 10° WSW 15:35:37 55° NNW 15:39:10 24° NE
Meteor 2-3 Rocket 4.0 15:30:09 10° N 15:35:39 44° ENE 15:38:23 26° ESE
Cosmos 921 Rocket 4.2 15:31:32 10° SW 15:35:42 42° WNW 15:39:57 10° NNE
Cosmos 1763 Rocket 4.1 15:31:12 10° NNW 15:36:21 57° WSW 15:41:24 10° S
Cosmos 1867 4.3 15:31:08 10° WSW 15:36:25 48° NNW 15:39:38 23° NE
Cosmos 1513 Rocket 4.5 15:30:20 10° S 15:36:36 65° E 15:42:57 10° NNE
Cosmos 540 Rocket 3.9 15:32:08 10° NNW 15:37:15 64° WSW 15:42:18 10° SSE
Cosmos 1346 Rocket 4.5 15:38:54 10° N 15:40:11 19° N 15:40:11 19° N
ISS -1.5 15:42:22 10° SSW 15:43:36 15° S 15:43:36 15° S
Nadezhda 4 Rocket 3.9 15:39:57 10° N 15:46:19 75° ENE 15:52:33 10° SSE
Cosmos 1140 Rocket 3.5 15:41:30 10° SSW 15:46:41 77° WNW 15:50:28 19° NNE
Cosmos 1269 Rocket 4.2 15:41:29 10° SW 15:46:45 71° WNW 15:50:56 17° NNE
CSL-04 Rocket 4.5 15:47:57 31° NE 15:47:57 31° NE 15:52:23 10° N
NOAA 6 3.9 15:45:09 10° SSE 15:50:19 80° ENE 15:55:29 10° NNW
Cosmos 2297 Rocket 3.9 15:49:52 10° NW 15:53:44 18° N 15:55:01 17° NNE
RESURS DK-1 3.8 15:51:29 10° NW 15:55:10 36° WSW 15:58:50 10° S
Cosmos 1602 3.9 15:54:36 10° NNW 15:57:36 51° W 15:58:11 43° SW
Cosmos 2251 Rocket 3.6 15:54:09 10° S 15:59:15 50° ESE 15:59:28 50° E
Cosmos 2195 Rocket 4.4 15:53:49 10° N 16:00:07 67° ENE 16:06:25 10° SSE
BREEZE M DEB (TANK) 3.9 15:50:31 10° W 16:03:47 50° SSW 16:05:36 34° SE
Cosmos 1862 3.2 16:00:13 10° NNW 16:03:50 71° W 16:04:11 65° SW
Geosat 4.3 16:01:25 15° SSE 16:05:33 65° WSW 16:10:35 10° NW
SPOT 5 4.2 16:07:36 28° NNE 16:07:36 28° NNE 16:10:40 10° N
Timation 2 Rocket 4.1 15:59:53 10° SSW 16:06:44 73° ESE 16:10:11 32° NE
Cosmos 1428 Rocket 4.4 16:01:36 10° NNW 16:07:53 87° E 16:14:12 10° S
YAOGAN 1 3.2 16:05:28 10° S 16:09:39 54° W 16:13:51 10° NNW
PSLV R/B 4.2 16:07:11 10° S 16:11:08 51° W 16:15:06 10° NNW
Cosmos 841 Rocket 3.4 16:08:36 10° NNW 16:13:54 88° WSW 16:15:36 44° SSE
ATLAS 2AS CENTAUR R/B 2.6 16:09:10 10° NW 16:15:59 68° NNE 16:17:37 51° E
Resurs 1-3 4.4 16:12:13 10° S 16:16:25 50° W 16:20:38 10° NNW
Terra 4.2 16:23:06 11° N 16:23:06 11° N 16:23:23 10° N
ARIANE 6 FM1 Upper Stage 3.9 16:19:01 10° WNW 16:22:10 32° NNW 16:22:10 32° NNW
Cosmos 2058 4.3 16:19:43 10° NNW 16:23:24 36° W 16:27:03 10° SSW
SJ 16-02 3.6 16:20:37 10° S 16:21:10 13° S 16:21:10 13° S
Cosmos 1536 Rocket 4.4 16:21:20 10° NNW 16:25:39 50° W 16:29:55 10° S
Resurs 01 Rocket 1.8 16:26:28 67° NNW 16:26:28 67° NNW 16:30:20 10° NNW
Cosmos 44 Rocket 4.0 16:25:17 10° SSW 16:28:34 41° S 16:28:34 41° S
Cosmos 1464 Rocket 4.1 16:29:52 10° SSW 16:36:10 76° WNW 16:42:26 10° N
Cosmos 1190 Rocket 4.3 16:31:24 10° SSW 16:35:36 56° S 16:35:36 56° S
Cosmos 2082 Rocket 3.5 16:35:16 10° NW 16:40:24 38° WSW 16:45:21 11° S
CZ-4B R/B 4.4 16:43:28 29° N 16:43:28 29° N 16:46:22 10° N
Cosmos 2227 Rocket 4.0 16:38:07 10° NNW 16:41:59 18° N 16:42:04 18° NNE
Cosmos 2034 Rocket 3.9 16:41:38 10° S 16:47:51 87° W 16:54:12 10° NNE
Cosmos 2278 Rocket 2.3 16:42:59 10° SW 16:48:39 73° NW 16:49:10 68° NNW
Cosmos 1943 Rocket 2.3 16:44:01 10° SW 16:49:37 69° NW 16:50:09 65° NNW
Cosmos 407 Rocket 4.2 16:45:37 10° SW 16:50:38 50° NW 16:51:44 42° NNW
Cosmos 2344 3.9 16:44:25 10° NW 16:52:04 72° SW 16:56:03 39° SSE
Cosmos 1092 Rocket 4.2 16:54:31 10° NNW 17:00:47 70° W 17:02:32 48° SSW
ATLAS CENTAUR R/B 4.0 17:00:51 10° WNW 17:01:34 14° NW 17:01:34 14° NW
BREEZE-M DEB (TANK) 4.5 17:02:18 10° WSW 17:04:22 41° SW 17:04:22 41° SW
COSMOS 2406 4.2 17:01:55 10° NW 17:07:14 42° WSW 17:08:32 36° SW
Cosmos 2026 Rocket 4.5 17:04:21 10° NNW 17:10:15 55° W 17:12:56 32° SSW
USA 281 3.7 17:09:14 41° SSW 17:11:17 57° WSW 17:17:47 10° NW
Cosmos 2263 Rocket 4.2 17:09:56 10° NNW 17:13:06 18° N 17:13:06 18° N
CZ-4C R/B 3.3 17:19:41 10° WNW 17:24:07 40° NNW 17:24:07 40° NNW
Cosmos 2297 Rocket 4.1 17:34:26 10° NNW 17:36:48 22° N 17:36:48 22° N
ATLAS 2AS CENTAUR R/B 3.7 18:00:18 10° NW 18:05:02 40° W 18:05:02 40° W
ACS3 Solar Sail 4.2 23:11:06 10° NE 23:13:18 15° ENE 23:13:18 15° ENE
CENTAUR R/B 4.3 23:18:14 34° ENE 23:18:14 34° ENE 23:23:24 10° E
